Weather History for Lufkin, TX

Change the Weather History Date:

Wednesday, January 18, 2012

  Actual Average Record
Temperature  
Mean Temperature 49 °F 49 °F  
Max Temperature 62 °F 60 °F 82 °F (1938)
Min Temperature 35 °F 38 °F -2 °F (1930)
Degree Days  
Heating Degree Days 16 16  
Month to date heating degree days 216 300  
Since 1 July heating degree days 954 1078  
Cooling Degree Days 0 0  
Month to date cooling degree days 3 0  
Year to date cooling degree days 3 0  
Moisture  
Dew Point 28 °F    
Average Humidity 49    
Maximum Humidity 70    
Minimum Humidity 27    
Precipitation  
Precipitation 0.00 in 0.14 in 1.74 in (1945)
Month to date precipitation 2.88 2.36  
Year to date precipitation 2.88 2.36  
Snow  
Snow 0.00 in - - ()
Month to date snowfall 0.0  
Since 1 July snowfall 0.0  
Snow Depth 0.00 in    
Sea Level Pressure  
Sea Level Pressure 30.21 in    
Wind  
Wind Speed 3 mph (NE)    
Max Wind Speed 10 mph    
Max Gust Speed 16 mph    
Visibility 10 miles    
Events      
T = Trace of Precipitation, MM = Missing Value Source: NWS Daily Summary

Daily Weather History Graph

Daily Weather History Graph

Search for Another Location

Airport:

Trip Planner

Search our weather history database for the weather conditions in past years. The results will help you decide how hot, cold, wet, or windy it might be!

Date:

Astronomy

Jan. 18, 2012 Rise Set
Actual Time 7:17 AM CST 5:41 PM CST
Civil Twilight 6:51 AM CST 6:07 PM CST
Nautical Twilight 6:21 AM CST 6:36 PM CST
Astronomical Twilight 5:52 AM CST 7:06 PM CST
Moon 2:46 AM CST (1/18) 1:23 PM CST (1/18)
Length of Visible Light 11h 15m
Length of Day
10h 23m
Waning Crescent, 24% of the Moon is Illuminated
Jan 18
Waning Crescent
Jan 23
New
Jan 30
First Quarter
Feb 7
Full
Feb 14
Last Quarter

Hourly Weather History & Observations

Time (CST) Temp. Windchill Dew Point Humidity Pressure Visibility Wind Dir Wind Speed Gust Speed Precip Events Conditions
12:53 AM 43.0 °F 38.8 °F 25.0 °F 49% 30.28 in 10.0 mi North 6.9 mph - N/A   Clear
1:53 AM 41.0 °F 36.4 °F 24.1 °F 51% 30.29 in 10.0 mi North 6.9 mph - N/A   Clear
2:53 AM 39.9 °F 34.5 °F 24.1 °F 53% 30.29 in 10.0 mi North 8.1 mph - N/A   Clear
3:53 AM 39.9 °F 35.8 °F 23.0 °F 51% 30.29 in 10.0 mi NNE 5.8 mph 16.1 mph N/A   Clear
4:53 AM 37.9 °F 32.1 °F 21.9 °F 53% 30.29 in 10.0 mi NNE 8.1 mph - N/A   Clear
5:53 AM 37.9 °F 33.5 °F 23.0 °F 55% 30.30 in 10.0 mi NNE 5.8 mph - N/A   Clear
6:53 AM 36.0 °F 32.1 °F 23.0 °F 59% 30.31 in 10.0 mi NNE 4.6 mph - N/A   Clear
7:53 AM 37.0 °F - 24.1 °F 59% 30.30 in 10.0 mi Calm Calm - N/A   Clear
8:53 AM 41.0 °F 37.1 °F 25.0 °F 53% 30.31 in 10.0 mi NE 5.8 mph - N/A   Clear
9:53 AM 45.0 °F 41.8 °F 26.1 °F 48% 30.31 in 10.0 mi Variable 5.8 mph - N/A   Clear
10:53 AM 48.9 °F - 26.1 °F 41% 30.29 in 10.0 mi Calm Calm - N/A   Clear
11:53 AM 53.1 °F - 26.1 °F 35% 30.25 in 10.0 mi Variable 3.5 mph - N/A   Clear
12:53 PM 55.4 °F - 26.6 °F 33% 30.21 in 10.0 mi Calm Calm - N/A   Clear
1:53 PM 57.9 °F - 27.0 °F 31% 30.17 in 10.0 mi Calm Calm - N/A   Clear
2:53 PM 60.1 °F - 27.0 °F 28% 30.15 in 10.0 mi Calm Calm - N/A   Clear
3:53 PM 61.0 °F - 27.0 °F 27% 30.13 in 10.0 mi Calm Calm - N/A   Clear
4:53 PM 61.0 °F - 28.0 °F 29% 30.13 in 10.0 mi Calm Calm - N/A   Clear
5:53 PM 53.1 °F - 35.1 °F 50% 30.12 in 10.0 mi Calm Calm - N/A   Clear
6:53 PM 48.0 °F - 35.1 °F 61% 30.11 in 10.0 mi ESE 4.6 mph - N/A   Clear
7:53 PM 48.9 °F - 34.0 °F 56% 30.10 in 10.0 mi Calm Calm - N/A   Clear
8:53 PM 46.0 °F 43.9 °F 34.0 °F 63% 30.10 in 10.0 mi SSE 4.6 mph - N/A   Clear
9:53 PM 42.1 °F 39.2 °F 34.0 °F 73% 30.08 in 10.0 mi SE 4.6 mph - N/A   Clear
10:53 PM 43.0 °F 41.3 °F 34.0 °F 71% 30.08 in 10.0 mi SSE 3.5 mph - N/A   Clear
11:53 PM 44.1 °F - 34.0 °F 68% 30.07 in 10.0 mi Calm Calm - N/A   Clear